Regional Weather Roundup
Issued by NWS

Home | Current Version | Previous Version | Text Only | Print | Product List | Glossary Off
Versions: 1 2 3 4 5 6 7 8 9 10 11 12 13 14 15 16 17 18 19 20 21 22 23 24 25 26 27 28 29 30 31 32 33 34 35 36 37 38 39 40 41 42 43 44 45 46 47 48 49 50

000
ASUS43 KLMK 170702
RWRKY
KENTUCKY REGIONAL WEATHER ROUNDUP
NATIONAL WEATHER SERVICE LOUISVILLE KY
300 AM EDT TUE OCT 17 2017

NOTE "FAIR" INDICATES FEW OR NO CLOUDS BELOW 12,000 FEET
WITH NO SIGNIFICANT WEATHER AND/OR OBSTRUCTIONS TO VISIBILITY.

KYZ001>023-026-027-061>063-070>075-170800-
WESTERN AND SOUTH CENTRAL KENTUCKY

CITY           SKY/WX    TMP DP  RH WIND       PRES   REMARKS
PADUCAH        PTCLDY    39  36  89 CALM      30.32R
HENDERSON      CLEAR     39  38  96 CALM      30.33
OWENSBORO      CLEAR     43  40  89 CALM      30.33S
HOPKINSVILLE   CLEAR     44  40  86 CALM      30.32R
BOWLING GREEN  CLEAR     43  42  97 CALM      30.33R
GLASGOW        NOT AVBL
$$

KYZ024-025-028>034-038-045-046-053-170800-
NORTH CENTRAL KENTUCKY

CITY           SKY/WX    TMP DP  RH WIND       PRES   REMARKS
LOUISVILLE/SDF CLEAR     47  42  83 CALM      30.33R
LOUISVILLE/LOU CLEAR     43  42  97 CALM      30.34R
FORT KNOX      CLEAR     40  40  99 CALM      30.31S
$$

KYZ035>037-039>044-047>052-055>060-089>105-170800-
NORTHEAST KENTUCKY

CITY           SKY/WX    TMP DP  RH WIND       PRES   REMARKS
LEXINGTON      CLEAR     41  37  86 CALM      30.33R
COVINGTON      CLEAR     41  41 100 CALM      30.31S
FRANKFORT      CLEAR     41  37  86 CALM      30.33R
$$

KYZ054-064>069-076>088-106>120-170800-
SOUTHEAST KENTUCKY

CITY           SKY/WX    TMP DP  RH WIND       PRES   REMARKS
JACKSON        CLEAR     45  39  79 CALM      30.32R
LONDON         CLEAR     41  39  93 CALM      30.32S
SOMERSET       NOT AVBL
MIDDLESBORO    CLEAR     39  39 100 CALM      30.35R
MONTICELLO     SUNNY     37  36  96 N8        30.35R WCI  31
$$





USA.gov is the U.S. government's official web portal to all federal, state and local government web resources and services.